#timestamp,LO_Frequency,Hit,StdDev 
1621760415.6,286046998.9,N
1621760435.5,286047002.7,N
1621760455.3,286047001.0,N
1621760475.1,286046999.6,N
1621760495.9,286046997.2,N
1621760515.7,286046997.3,N
1621760535.6,286046998.7,N
1621760555.4,286047002.4,N
1621760575.2,286046999.9,N
1621760595.1,286046999.9,N
1621760596.0,286046999.9,N
1621760615.8,286046998.1,N
1621760635.6,286046996.7,N
1621760655.5,286047001.1,N
1621760675.3,286047002.8,N
1621760695.2,286046999.9,N
1621760715.9,286047000.2,N
1621760735.7,286046999.7,N
1621760755.6,286047000.5,N
1621760775.4,286047002.4,N
1621760795.2,286047001.1,N
1621760815.1,286046999.0,N
1621760816.0,286046999.0,N
1621760835.8,286046998.2,N
1621760855.7,286046998.2,N
1621760875.5,286047001.0,N
1621760895.3,286046999.7,N
1621760915.2,286047000.0,N
1621760935.0,286046999.4,N
1621760935.9,286046999.4,N
1621760955.8,286046996.7,N
1621760975.6,286046997.5,N
1621760995.4,286046997.1,N
1621761015.3,286046999.4,N
1621761035.1,286047000.7,N
1621761055.9,286047002.6,N
1621761075.7,286047003.2,N
1621761095.5,286047000.2,N
1621761115.4,286047001.1,N
1621761135.2,286046999.0,N
1621761155.0,286047002.3,N
1621761155.9,286047002.3,N
1621761175.8,286047003.3,N
1621761195.6,286047004.4,N
1621761215.5,286047005.8,Y
1621761235.3,286047004.8,P
1621761255.1,286047005.2,N
1621761275.9,286047003.8,N
1621761295.7,286047002.7,N
1621761315.5,286047001.8,N
1621761335.4,286047002.5,N
1621761355.2,286047004.0,N
1621761375.1,286047003.2,N
1621761376.0,286047003.2,N
1621761395.8,286047004.4,Y
1621761415.6,286047001.1,P
1621761435.5,286047000.6,N
1621761455.3,286047002.7,N
1621761475.1,286047000.5,N
1621761495.9,286047000.1,N
1621761515.7,286047002.4,N
1621761535.6,286047008.9,Y
1621761555.4,286047008.1,P
1621761575.2,286047006.2,N
1621761595.1,286047005.1,N
1621761596.0,286047005.1,N
1621761615.8,286047001.3,N
1621761635.7,286047002.7,N
1621761655.5,286047002.3,N
1621761675.3,286047002.3,N
1621761695.2,286047002.1,N
1621761715.9,286047002.8,N
1621761735.7,286046998.3,N
1621761755.6,286047000.6,N
1621761775.4,286047002.7,N
1621761795.3,286047002.0,N
1621761815.1,286047002.0,N
1621761816.0,286047002.0,N
1621761835.8,286047002.6,N
1621761855.7,286047000.2,N
1621761875.5,286046998.8,N
1621761895.3,286046997.9,N
1621761915.2,286046997.1,N
1621761935.0,286046999.3,N
1621761935.9,286046999.3,N
1621761955.8,286047000.6,N
1621761975.6,286047002.8,N
1621761995.4,286046998.3,N
1621762015.3,286047001.1,N
1621762035.1,286047000.4,N
1621762055.8,286047000.2,N
1621762075.7,286046998.9,N
1621762095.5,286047000.6,N
1621762115.4,286046999.8,N
1621762135.2,286047001.2,N
1621762155.0,286046998.4,N
1621762155.9,286046998.4,N
1621762175.8,286046999.3,N
1621762195.6,286046997.1,N
1621762215.4,286046997.2,N
1621762235.3,286046998.0,N
1621762255.1,286046996.6,N
1621762275.9,286046996.5,N
1621762295.7,286046997.1,N
1621762315.5,286046997.7,N
1621762335.4,286046998.1,N
1621762355.2,286046998.9,N
1621762375.0,286046998.9,N
1621762375.9,286046998.9,N
1621762395.8,286046998.0,N
1621762415.6,286046996.0,N
1621762435.5,286046996.0,N
1621762455.3,286046993.3,Y
1621762475.1,286046998.9,P
1621762495.9,286047000.1,N
1621762515.7,286047002.4,P
1621762535.5,286047004.2,N
1621762555.4,286047000.1,N
1621762575.2,286046999.7,N
1621762595.1,286047003.8,N
1621762596.0,286047003.8,N
1621762615.8,286046999.7,N
1621762635.6,286047000.6,N
1621762655.5,286046999.4,N
1621762675.3,286046999.6,N
1621762695.2,286046999.7,N
1621762715.9,286046998.6,N
1621762735.7,286047000.7,N
1621762755.6,286046998.5,N
1621762775.4,286046999.7,N
1621762795.2,286047002.6,N
1621762815.1,286047001.2,N
1621762816.0,286047001.2,N
1621762835.8,286046999.9,N
1621762855.7,286047000.0,N
1621762875.5,286047002.4,N
1621762895.3,286047004.4,N
1621762915.2,286047002.5,N
1621762935.0,286046999.7,N
1621762935.9,286046999.7,N
1621762955.8,286047002.8,N
1621762975.6,286047001.9,N
1621762995.4,286047000.5,N
1621763015.3,286047002.2,N
1621763035.1,286047004.3,N
1621763055.8,286047004.0,N
1621763075.7,286047002.8,N
1621763095.5,286047002.4,N
1621763115.4,286047002.1,N
1621763135.2,286047002.5,N
1621763155.0,286047002.8,N
1621763155.9,286047002.8,N
1621763175.8,286047000.1,N
1621763195.6,286046999.7,N
1621763215.4,286046999.5,N
1621763235.3,286046998.6,N
1621763255.1,286047002.0,N
1621763275.9,286047001.6,N
1621763295.7,286047003.8,N
1621763315.5,286047001.7,N
1621763335.4,286047000.3,N
1621763355.2,286047000.7,N
1621763375.0,286047000.8,N
1621763375.9,286047000.8,N
1621763395.8,286046999.4,N
1621763415.6,286046999.7,N
1621763435.5,286047003.5,N
1621763455.3,286047004.2,N
1621763475.1,286047003.1,N
1621763495.9,286047001.5,N
1621763515.7,286047004.3,N
1621763535.5,286047000.4,N
1621763555.4,286047002.8,N
1621763575.2,286047002.7,N
1621763595.1,286047001.0,N
1621763596.0,286047001.0,N
1621763615.8,286047001.2,N
1621763635.6,286047000.9,N
1621763655.5,286046998.8,N
1621763675.3,286046998.3,N
1621763695.1,286046999.0,N
1621763715.9,286047001.5,N
1621763735.7,286047002.5,N
1621763755.6,286047000.9,N
1621763775.4,286047001.0,N
1621763795.2,286047002.0,N
1621763815.1,286047001.5,N
1621763816.0,286047001.5,N
1621763835.8,286047001.1,N
1621763855.7,286046998.8,N
1621763875.5,286046998.2,N
1621763895.3,286047002.1,N
1621763915.2,286047000.2,N
1621763935.0,286046996.6,N
1621763935.9,286046996.6,N
1621763955.7,286046996.9,N
1621763975.6,286046998.8,N
1621763995.4,286047002.4,N
